OpenBCM V1.13 (Linux)

Packet Radio Mailbox

DB0FHN

[JN59NK Nuernberg]

 Login: GUEST





  
UA9FBV > KEPS     23.08.04 04:12l 95 Lines 2474 Bytes #999 (0) @ AMSAT
BID : ORB04235.M
Read: GUEST
Subj: Orbital Elements  04235.MISC
Path: DB0FHN<DB0RGB<OK0PPL<DB0RES<ER3KAZ<UA9FBV
Sent: 040823/0208Z @:UA9FBV.PRM.RUS.AS #:5881 [Perm] GATEWAY $:ORB04235.M
From: UA9FBV@UA9FBV.PRM.RUS.AS
To  : KEPS@AMSAT


HR AMSAT ORBITAL ELEMENTS FOR MANNED AND MISCELLANEOUS SATELLITES
FROM WA5QGD FORT WORTH,TX August 22, 2004
SEND SUBSCRIBE/UNSUBSCRIBE TO majordomo@amsat.org ONLY
BID: ORB04235.M
TO ALL RADIO AMATEURS BT

Satellite: HUBBLE
Catalog number: 20580
Epoch time:      04235.68396233
Element set:     136
Inclination:       28.4706 deg
RA of node:        53.1564 deg
Eccentricity:    0.0004417
Arg of perigee:   335.0163 deg
Mean anomaly:      25.0201 deg
Mean motion:   14.99268038 rev/day
Decay rate:      1.043e-05 rev/day^2
Epoch rev:           58539
Checksum:              273

Satellite: UARS
Catalog number: 21701
Epoch time:      04235.37144999
Element set:     250
Inclination:       56.9814 deg
RA of node:       321.1619 deg
Eccentricity:    0.0006610
Arg of perigee:   111.3304 deg
Mean anomaly:     248.8371 deg
Mean motion:   15.03599400 rev/day
Decay rate:      -1.62e-06 rev/day^2
Epoch rev:           70854
Checksum:              272

Satellite: PO-34
Catalog number: 25520
Epoch time:      04235.17407779
Element set:     995
Inclination:       28.4593 deg
RA of node:       150.5347 deg
Eccentricity:    0.0006051
Arg of perigee:   208.8204 deg
Mean anomaly:     151.2075 deg
Mean motion:   15.15686554 rev/day
Decay rate:      1.356e-05 rev/day^2
Epoch rev:           32116
Checksum:              296

Satellite: ISS
Catalog number: 25544
Epoch time:      04235.86712963
Element set:     507
Inclination:       51.6337 deg
RA of node:       345.3180 deg
Eccentricity:    0.0008007
Arg of perigee:   123.1889 deg
Mean anomaly:       7.5106 deg
Mean motion:   15.70380867 rev/day
Decay rate:     2.0982e-04 rev/day^2
Epoch rev:           32879
Checksum:              305

Satellite: OO-38
Catalog number: 26063
Epoch time:      04235.85116962
Element set:     142
Inclination:      100.2204 deg
RA of node:        34.9849 deg
Eccentricity:    0.0036927
Arg of perigee:   174.1137 deg
Mean anomaly:     186.0501 deg
Mean motion:   14.35663299 rev/day
Decay rate:       1.39e-06 rev/day^2
Epoch rev:           23948
Checksum:              302

Satellite: NO-45
Catalog number: 26932
Epoch time:      04235.66802102
Element set:     835
Inclination:       67.0559 deg
RA of node:       276.2456 deg
Eccentricity:    0.0004467
Arg of perigee:   282.1697 deg
Mean anomaly:      77.8914 deg
Mean motion:   14.29437790 rev/day
Decay rate:       -5.4e-07 rev/day^2
Epoch rev:           15113
Checksum:              320



Read previous mail | Read next mail


 15.06.2026 07:56:08lGo back Go up